Weather History for Markham, ON

Change the Weather History Date:

Monday, November 12, 2012

  Actual Average Record
Temperature  
Mean Temperature 52 °F -  
Max Temperature 66 °F 43 °F 66 °F (2012)
Min Temperature 39 °F 29 °F 19 °F (1997)
Degree Days  
Heating Degree Days 12    
Growing Degree Days 2 (Base 50)    
Moisture  
Dew Point 43 °F    
Average Humidity 70    
Maximum Humidity 94    
Minimum Humidity 46    
Precipitation  
Precipitation 0.24 in - - ()
Sea Level Pressure  
Sea Level Pressure 30.02 in    
Wind  
Wind Speed 8 mph ()    
Max Wind Speed 20 mph    
Max Gust Speed 39 mph    
Visibility 13.3 miles    
Events Rain    
Averages and records for this station are not official NWS values.
T = Trace of Precipitation, MM = Missing Value Source: Averaged Metar Reports

Daily Weather History Graph

Daily Weather History Graph

Search for Another Location

Airport:

Trip Planner

Search our weather history database for the weather conditions in past years. The results will help you decide how hot, cold, wet, or windy it might be!

Date:

Astronomy

Nov. 12, 2012 Rise Set
Actual Time 7:08 AM EST 4:54 PM EST
Civil Twilight 6:37 AM EST 5:24 PM EST
Nautical Twilight 6:03 AM EST 5:59 PM EST
Astronomical Twilight 5:29 AM EST 6:33 PM EST
Moon 5:30 AM EST (11/12) 3:58 PM EST (11/12)
Length of Visible Light 10h 47m
Length of Day
9h 45m
Waning Crescent, 2% of the Moon is Illuminated
Nov 12
Waning Crescent
Nov 13
New
Nov 20
First Quarter
Nov 28
Full
Dec 6
Last Quarter

Hourly Weather History & Observations

Time (EST) Temp. Windchill Dew Point Humidity Pressure Visibility Wind Dir Wind Speed Gust Speed Precip Events Conditions
12:00 AM 41.0 °F - 37.4 °F 87% 30.10 in 15.0 mi ENE 2.3 mph - N/A   Partly Cloudy
1:00 AM 42 °F - 39 °F 85% 30.10 in 15 mi Calm Calm - -   Clear
1:00 AM 42.8 °F - 39.2 °F 87% 30.10 in 15.0 mi Calm Calm - N/A   Mostly Cloudy
2:00 AM 57.2 °F - 41.0 °F 55% 30.09 in 15.0 mi South 5.8 mph - N/A   Mostly Cloudy
3:00 AM 57.2 °F - 39.2 °F 51% 30.09 in 15.0 mi South 8.1 mph - N/A   Mostly Cloudy
4:00 AM 57.2 °F - 39.2 °F 51% 30.06 in 15.0 mi South 9.2 mph - N/A   Mostly Cloudy
5:00 AM 57.2 °F - 39.2 °F 51% 30.06 in 15.0 mi South 6.9 mph - N/A   Mostly Cloudy
6:00 AM 57.2 °F - 41.0 °F 55% 30.05 in 15.0 mi South 11.5 mph - N/A   Mostly Cloudy
7:00 AM 58 °F - 43 °F 46% 30.05 in 15 mi South 11.5 mph - -   Mostly Cloudy
7:00 AM 57.2 °F - 42.8 °F 59% 30.05 in 15.0 mi South 11.5 mph 17.3 mph N/A   Mostly Cloudy
8:00 AM 57.2 °F - 44.6 °F 63% 30.04 in 15.0 mi South 10.4 mph - N/A   Mostly Cloudy
9:00 AM 59.0 °F - 46.4 °F 63% 30.03 in 15.0 mi South 15.0 mph 20.7 mph N/A   Mostly Cloudy
10:00 AM 60.8 °F - 46.4 °F 59% 30.01 in 15.0 mi South 11.5 mph 21.9 mph N/A   Mostly Cloudy
11:00 AM 62.6 °F - 48.2 °F 59% 29.99 in 15.0 mi South 15.0 mph 21.9 mph N/A   Overcast
12:00 PM 64.4 °F - 48.2 °F 56% 29.94 in 15.0 mi South 19.6 mph 39.1 mph N/A   Mostly Cloudy
1:00 PM 65 °F - 49 °F 46% 29.91 in 15 mi South 15.0 mph - -   Overcast
1:00 PM 66.2 °F - 50.0 °F 56% 29.91 in 15.0 mi South 13.8 mph 25.3 mph N/A   Overcast
1:51 PM - - - N/A% - 15.0 mi South 11.5 mph 20.7 mph N/A Rain Light Rain
2:00 PM 60.8 °F - 51.8 °F 72% 29.90 in 8.0 mi SSW 15.0 mph 20.7 mph N/A Rain Light Rain
3:00 PM 59.0 °F - 53.6 °F 82% 29.88 in 7.0 mi SW 9.2 mph 19.6 mph N/A Rain Light Rain
4:00 PM 55.4 °F - 51.8 °F 88% 29.89 in 15.0 mi West 10.4 mph 18.4 mph N/A Rain Light Rain
4:13 PM - - - N/A% - 3.0 mi West 10.4 mph 17.3 mph N/A Rain Light Rain
4:18 PM - - - N/A% - 6.0 mi West 13.8 mph - N/A Rain Light Rain
5:00 PM 50.0 °F - 48.2 °F 94% 29.94 in 12.0 mi West 11.5 mph 17.3 mph N/A Rain Light Rain
6:00 PM 50.0 °F - 44.6 °F 82% 29.98 in 7.0 mi WSW 12.7 mph 21.9 mph N/A Rain Light Rain
7:00 PM 47 °F - 43 °F 81% 30.00 in 15 mi WSW 9.2 mph - - Rain Light Rain
7:00 PM 46.4 °F 41.9 °F 42.8 °F 87% 30.00 in 15.0 mi WSW 9.2 mph - N/A Rain Light Rain
8:00 PM 44.6 °F 37.2 °F 41.0 °F 87% 30.06 in 12.0 mi WSW 17.3 mph 23.0 mph N/A Rain Light Rain
9:00 PM 41.0 °F 33.9 °F 37.4 °F 87% 30.07 in 15.0 mi West 12.7 mph - N/A Rain Light Rain
10:00 PM 39.2 °F 34.2 °F 35.6 °F 87% 30.11 in 12.0 mi WSW 6.9 mph - N/A Rain Light Rain
11:00 PM 39.2 °F 30.8 °F 32.0 °F 75% 30.15 in 15.0 mi WSW 15.0 mph 25.3 mph N/A   Overcast